Location: Newark
(33.6333°S, 78.8500°W)
Time: 18:02:07
(UTC+00:00)

Courier 1B - Pass Details

Date: 26 September 2019
Orbit: 962 x 1209 km, 28.3° (Epoch: 23 October)

Event Time Altitude Azimuth Distance (km) Brightness Sun altitude
Rises 23:37:51 0° 272° (W) 4,086 13.2 -5.7°
Reaches altitude 10° 23:40:49 10° 276° (W) 3,099 11.8 -6.3°
Maximum altitude 23:48:15 53° 351° (N) 1,366 8.3 -7.8°
Drops below altitude 10° 23:55:15 10° 65° (ENE) 2,928 9.4 -9.3°
Enters shadow 23:55:22 10° 66° (ENE) 2,964 9.4 -9.3°
Sets 23:57:59 0° 70° (ENE) 3,845 - -9.8°
